Location: Newark
(51.0967°N, 24.7917°E)
Time: 03:22:49
(UTC+00:00)

STARLINK-1311 - Pass Details

Date: 02 April 2020
Orbit: 353 x 362 km, 53.0° (Epoch: 29 May)

Event Time Altitude Azimuth Distance (km) Brightness Sun altitude
Exits shadow 01:11:44 20° 98° (E) 926 5.2 -23.4°
Drops below altitude 10° 01:13:01 10° 83° (E) 1,367 6.4 -23.3°
Sets 01:15:08 0° 72° (ENE) 2,210 7.8 -23.0°
